TimeCDT,TemperatureF,Dew PointF,Humidity,Sea Level PressureIn,VisibilityMPH,Wind Direction,Wind SpeedMPH,Gust SpeedMPH,PrecipitationIn,Events,Conditions,WindDirDegrees,DateUTC
12:53 AM,66.9,64.9,93,30.14,6.0,Calm,Calm,-,N/A,,Clear,0,2013-07-15 05:53:00
1:53 AM,64.9,64.0,97,30.15,6.0,Calm,Calm,-,N/A,,Clear,0,2013-07-15 06:53:00
2:53 AM,63.0,62.1,97,30.15,3.0,Calm,Calm,-,N/A,,Clear,0,2013-07-15 07:53:00
3:53 AM,63.0,61.0,93,30.15,5.0,Calm,Calm,-,N/A,,Clear,0,2013-07-15 08:53:00
4:53 AM,61.0,60.1,97,30.16,3.0,East,3.5,-,N/A,,Clear,80,2013-07-15 09:53:00
5:53 AM,61.0,60.1,97,30.16,3.0,Calm,Calm,-,N/A,,Clear,0,2013-07-15 10:53:00
6:05 AM,60.8,59.0,94,30.18,2.0,Calm,Calm,-,N/A,,Clear,0,2013-07-15 11:05:00
6:53 AM,62.1,60.1,93,30.17,2.0,Calm,Calm,-,N/A,,Clear,0,2013-07-15 11:53:00
7:02 AM,62.6,60.8,94,30.19,1.8,Calm,Calm,-,N/A,,Clear,0,2013-07-15 12:02:00
7:14 AM,62.6,60.8,94,30.19,2.0,Calm,Calm,-,N/A,,Clear,0,2013-07-15 12:14:00
7:53 AM,64.0,62.1,93,30.17,3.0,Calm,Calm,-,N/A,,Clear,0,2013-07-15 12:53:00
8:53 AM,68.0,63.0,84,30.19,5.0,East,3.5,-,N/A,,Haze,90,2013-07-15 13:53:00
9:53 AM,73.9,62.1,66,30.18,10.0,Variable,3.5,-,N/A,,Clear,0,2013-07-15 14:53:00
10:53 AM,79.0,62.1,56,30.17,10.0,South,9.2,-,N/A,,Clear,190,2013-07-15 15:53:00
11:53 AM,82.0,59.0,45,30.17,10.0,South,10.4,-,N/A,,Mostly Cloudy,190,2013-07-15 16:53:00
12:53 PM,81.0,57.9,45,30.17,10.0,South,5.8,20.7,N/A,,Clear,170,2013-07-15 17:53:00
1:53 PM,82.9,57.9,42,30.15,10.0,South,9.2,19.6,N/A,,Partly Cloudy,190,2013-07-15 18:53:00
2:53 PM,82.9,55.9,39,30.14,10.0,South,6.9,19.6,N/A,,Partly Cloudy,170,2013-07-15 19:53:00
3:53 PM,84.0,57.0,40,30.12,10.0,South,11.5,-,N/A,,Clear,180,2013-07-15 20:53:00
4:53 PM,84.0,55.9,38,30.12,10.0,SSE,11.5,-,N/A,,Clear,160,2013-07-15 21:53:00
5:53 PM,82.9,57.0,41,30.10,10.0,South,15.0,-,N/A,,Clear,170,2013-07-15 22:53:00
6:53 PM,82.9,60.1,46,30.09,10.0,South,6.9,-,N/A,,Clear,170,2013-07-15 23:53:00
7:53 PM,81.0,61.0,50,30.10,10.0,SSE,11.5,20.7,N/A,,Clear,150,2013-07-16 00:53:00
8:53 PM,79.0,61.0,54,30.10,10.0,SSE,8.1,-,N/A,,Clear,150,2013-07-16 01:53:00
9:53 PM,75.0,61.0,62,30.12,10.0,ESE,3.5,-,N/A,,Clear,120,2013-07-16 02:53:00
10:53 PM,73.0,63.0,71,30.14,10.0,SSE,5.8,-,N/A,,Clear,150,2013-07-16 03:53:00
11:53 PM,72.0,63.0,73,30.14,10.0,South,8.1,-,N/A,,Clear,170,2013-07-16 04:53:00